Location: Boncourt
(49.6160°N, 3.9448°E)
Time: 23:19:35
(UTC+00:00)

Cosmos 1943 Rocket - Pass Details

Date: 09 February 2023
Orbit: 811 x 844 km, 71.0° (Epoch: 01 April)

Event Time Altitude Azimuth Distance (km) Brightness Sun altitude
Rises 18:39:41 0° 333° (NNW) 3,414 5.7 -17.7°
Reaches altitude 10° 18:42:20 10° 342° (NNW) 2,475 4.8 -18.1°
Maximum altitude 18:47:37 38° 50° (NE) 1,270 2.7 -19.0°
Enters shadow 18:48:47 34° 77° (ENE) 1,353 2.7 -19.2°
